Simultaneous Nadir Overpasses (SNOs) Predictions

Prediction of SNOs between NPP and LANDSAT-9 Satellite Orbit:

Table of predicted SNOs for the next 14.0 days since TLE Epoch: 12/10/2022
Index Date (NPP) Time (NPP) Lat,Lon (NPP) SZA (NPP ) Date (LANDSAT-9) Time (LANDSAT-9) Lat,Lon (LANDSAT-9) SZA (LANDSAT-9 ) Distance(km) Time Diff (sec)
1 12/10/2022 06:33:12 70.15, 78.13 92.97 12/10/2022 06:34:06 70.17, 78.12 92.98 2.18 54
2 12/10/2022 07:23:54 -70.07,-114.43 87.12 12/10/2022 07:23:36 -70.06,-114.41 87.13 1.76 18
3 12/10/2022 08:14:24 69.20, 54.16 92.01 12/10/2022 08:13:16 69.24, 52.12 92.07 80.42 68
4 12/12/2022 22:50:11 70.15,-166.10 93.18 12/12/2022 22:50:36 70.13,-166.06 93.15 2.72 25
5 12/12/2022 23:40:52 -70.01, 1.43 86.97 12/12/2022 23:40:06 -70.01, 1.41 86.96 0.85 46
6 12/15/2022 14:16:25 -70.27, 142.16 86.54 12/15/2022 14:17:37 -70.22, 142.31 86.60 7.58 72
7 12/15/2022 15:07:08 70.09, -50.26 93.29 12/15/2022 15:07:04 70.12, -50.20 93.31 3.51 4
8 12/15/2022 15:57:48 -69.90, 117.35 86.92 12/15/2022 15:56:35 -69.95, 117.21 86.86 8.08 73
9 12/18/2022 06:33:22 -70.16,-101.92 86.54 12/18/2022 06:34:07 -70.14,-101.92 86.57 2.80 45
10 12/18/2022 07:24:06 70.05, 65.57 93.34 12/18/2022 07:23:34 70.03, 65.56 93.33 1.94 32
11 12/20/2022 21:59:49 70.79,-154.48 94.17 12/20/2022 22:00:57 70.69,-152.87 94.03 60.19 68
12 12/20/2022 22:50:20 -70.12, 13.91 86.53 12/20/2022 22:50:36 -70.09, 13.89 86.56 3.39 16
13 12/20/2022 23:41:04 70.00,-178.60 93.35 12/20/2022 23:40:03 69.98,-178.63 93.33 3.30 61
14 12/23/2022 14:16:36 70.18, -37.73 93.53 12/23/2022 14:17:34 70.18, -37.74 93.52 0.45 58
15 12/23/2022 15:07:18 -70.08, 129.74 86.58 12/23/2022 15:07:04 -70.08, 129.75 86.58 0.86 14
16 12/23/2022 15:57:50 69.33, -61.85 92.66 12/23/2022 15:56:41 69.41, -63.52 92.77 66.15 69



Historial Predications of SNOs between NPP and LANDSAT-9
